Location: Asheville, NC
(35.6000°N, 82.5500°W)
Time: 05:22:06
(UTC-04:00)

Tiangong 1 - Pass Details

Date: 16 October 2017
Orbit: 294 x 321 km, 42.8° (Epoch: 17 October)

Event Time Altitude Azimuth Distance (km) Brightness Sun altitude
Rises 20:25:30 0° 289° (WNW) 2,031 6.1 -19.5°
Reaches altitude 10° 20:27:36 10° 278° (W) 1,196 4.8 -20.0°
Enters shadow 20:29:46 29° 225° (SW) 596 2.4 -20.4°
